[Iaude] MPEC F120: 2024 FQ3 [a=2.47,e=0.71,i=3.1,H=27.3]

mpec at cfa.harvard.edu mpec at cfa.harvard.edu
Sun Mar 31 17:57:53 EDT 2024


M.P.E.C. 2024-F120                               Issued 2024 March 31, 21:56 UT

     The Minor Planet Electronic Circulars contain information on unusual
         minor planets, routine data on comets and natural satellites,
         and occasional editorial announcements.  They are published
    on behalf of Division F of the International Astronomical Union by the
          Minor Planet Center, Smithsonian Astrophysical Observatory,
                          Cambridge, MA 02138, U.S.A.
			  
             Prepared using the Tamkin Foundation Computer Network

                              MPC at CFA.HARVARD.EDU
            URL https://www.minorplanetcenter.net/    ISSN 1523-6714

                                    2024 FQ3                                    


Observations:
     K24F03Q* C2024 03 30.33061711 31 07.935-13 16 37.00         20.37wXEF120F51
     K24F03Q  C2024 03 30.34234811 30 56.924-13 18 41.58         20.67wXEF120F51
     K24F03Q  C2024 03 30.36575711 30 34.611-13 22 51.52         20.86wXEF120F51
     K24F03Q  C2024 03 30.47488011 28 44.119-13 43 04.26         19.74GVEF120F51
     K24F03Q  C2024 03 30.47570111 28 43.270-13 43 13.63         19.68GVEF120F51
     K24F03Q KC2024 03 30.98290311 18 48.125-15 52 13.58         19.2 GVEF120J95
     K24F03Q KC2024 03 30.99514411 18 27.713-15 56 07.40         19.8 GVEF120J95
     K24F03Q |C2024 03 31.12787011 14 51.160-16 32 46.80         19.4 GVEF120807
     K24F03Q |C2024 03 31.12974011 14 47.380-16 33 28.60         19.1 GVEF120807
     K24F03Q |C2024 03 31.13160011 14 43.590-16 34 10.00         19.4 GVEF120807
     K24F03Q |C2024 03 31.13347011 14 39.810-16 34 52.00         19.2 GVEF120807
     K24F03Q |C2024 03 31.13533011 14 36.010-16 35 33.30         19.1 GVEF120807
     K24F03Q KB2024 03 31.90250210 29 23.69 -25 09 15.7          19.0 GXEF120958
     K24F03Q KB2024 03 31.90366010 29 15.54 -25 10 32.4          19.6 GXEF120958
     K24F03Q KB2024 03 31.90479310 29 07.62 -25 11 48.1          18.8 GXEF120958

Observer details:
807 Cerro Tololo Observatory, La Serena.  Observers T. Linder, R. Holmes.
    0.61-m f/6.8 Ritchey-Chretien + CCD.
958 Observatoire de Dax.  Observer P. Dupouy.  0.50-m f/4.5 Reflector + CMO.
F51 Pan-STARRS 1, Haleakala.  Observers J. Herman, T. Lowe, P. Minguez, A.
    Schultz, I. Smith.  Measurers K. Chambers, T. de Boer, J. Fairlamb, H.
    Gao, M. Huber, C.-C. Lin, E. Magnier, Y. Ramanjooloo, R. Wainscoat, R.
    Weryk.  1.8-m Ritchey-Chretien + CCD.
J95 Great Shefford.  Observer P. Birtwhistle.  0.41-m f/6.3 Schmidt-Cassegrain
    + CCD.

Orbital elements:
2024 FQ3                                                 Earth MOID = 0.0044 AU
Epoch 2024 Mar. 31.0 TT = JDT 2460400.5                 MPC                     
M 348.65667              (2000.0)            P               Q                  
n   0.25401196     Peri.   68.13986     -0.09155529     +0.99568057             
a   2.4692588      Node   196.62925     -0.93237026     -0.09115214             
e   0.7141859      Incl.    3.08915     -0.34971893     -0.01764923             
P   3.88           H   27.35          G   0.15           U   7                  
Residuals in seconds of arc
240330 F51  0.3-  0.1+    240330 J95  0.6-  0.4-    240331 807  0.1+  0.3-
240330 F51  0.5-  0.1-    240330 J95  0.5+  0.3-    240331 807  0.0   0.1-
240330 F51  0.5+  0.6+    240331 807  0.1+  0.3+    240331 958  0.1-  0.7-
240330 F51  0.3-  0.1+    240331 807  0.2+  0.0     240331 958  0.5-  0.4+
240330 F51  0.1-  0.1+    240331 807  0.1-  0.0     240331 958  0.2+  1.0+

Ephemeris:
2024 FQ3                 a,e,i = 2.47, 0.71, 3                   q = 0.7057
Date    TT    R. A. (2000) Decl.     Delta      r    Elong.  Phase     V
2024 03 01    11 59 18.8 -05 57 14   0.3790  1.3491   157.7    16.2    26.8
...
2024 03 16    11 58 45.3 -07 03 06   0.1896  1.1821   170.4     8.1    24.7
...
2024 03 24    11 54 22.5 -08 07 11   0.09718 1.0932   171.8     7.4    23.0
...
2024 03 30    11 34 55.3 -12 23 23   0.03021 1.0276   162.9    16.6    20.7
2024 03 31    11 18 26.7 -15 50 29   0.01931 1.0168   157.1    22.4    19.9
2024 04 01    10 17 15.1 -26 51 11   0.0089891.0060   138.9    40.8    18.7
...
2024 04 07    00 16 08.1 +03 15 39   0.05942 0.9431    12.4   166.8
...
2024 04 15    00 09 23.5 +05 13 59   0.1505  0.8648    21.3   155.1    32.5
...
2024 04 30    00 16 54.0 +06 31 09   0.3374  0.7498    33.6   132.0    30.3

A. U. Tomatic                (C) Copyright 2024 MPC           M.P.E.C. 2024-F120





More information about the Iaude mailing list